Orbital Elements at Epoch 2459200.5 (2020-Dec-17.0) TDB
Reference: JPL 14 (heliocentric ecliptic J2000)
Element | Value | Uncertainty (1-sigma) | Units |
e | .09952976058259029 | 5.3271e-08 | |
a | 1.984413958469343 | 9.5791e-09 | au |
q | 1.786905712286139 | 1.0942e-07 | au |
i | 21.01974284798051 | 8.6662e-06 | deg |
node | 200.6667821938275 | 1.3422e-05 | deg |
peri | 247.5771543210363 | 4.6449e-05 | deg |
M | 79.18991689947894 | 4.4987e-05 | deg |
tp | 2458975.897687639593 (2020-May-06.39768764) | 0.0001271 | TDB |
period | 1021.049593376688 2.80 | 7.3932e-06 2.024e-08 | d yr |
n | .3525783687053368 | 2.5529e-09 | deg/d |
Q | 2.181922204652547 | 1.0533e-08 | au |
|
| | Orbit Determination Parameters
Additional Information
|